• In Deutschland
  • Länderverzeichnis
  • Für 7 Tage
  • Wassertemperatur
  • Satellitenkarten
  • Wetterkarte
  • Widgets
  • user-avatar
    Anmelden

    Stündliche Wetter Dundong

    Heute, 25 Februar, Sonntag

    Zeit Temperatur Niederschläge Wind Luftdruck Luftfeuchtigkeit
    00:00 +10°C° 0,1 mm 2 m/S 701 mmHg 78%
    01:00 +10°C° 0,1 mm 2 m/S 701 mmHg 78%
    02:00 +10°C° 0 mm 1 m/S 701 mmHg 78%
    03:00 +10°C° 0 mm 1 m/S 701 mmHg 78%
    04:00 +10°C° 0 mm 1 m/S 701 mmHg 77%
    05:00 +10°C° 0 mm 1 m/S 701 mmHg 78%
    06:00 +10°C° 0 mm 1 m/S 701 mmHg 79%
    07:00 +8°C° 0 mm 2 m/S 702 mmHg 81%
    08:00 +10°C° 0 mm 2 m/S 702 mmHg 73%
    09:00 +13°C° 0 mm 2 m/S 703 mmHg 66%
    10:00 +15°C° 0 mm 2 m/S 703 mmHg 59%
    11:00 +16°C° 0 mm 2 m/S 703 mmHg 56%
    12:00 +17°C° 0 mm 2 m/S 702 mmHg 53%
    13:00 +18°C° 0 mm 2 m/S 702 mmHg 50%
    14:00 +18°C° 0 mm 2 m/S 701 mmHg 50%
    15:00 +18°C° 0 mm 2 m/S 701 mmHg 51%
    16:00 +18°C° 0 mm 2 m/S 700 mmHg 51%
    17:00 +16°C° 0 mm 2 m/S 700 mmHg 57%
    18:00 +15°C° 0 mm 2 m/S 700 mmHg 64%
    19:00 +13°C° 0 mm 1 m/S 700 mmHg 70%
    20:00 +13°C° 0 mm 1 m/S 700 mmHg 72%
    21:00 +12°C° 0 mm 1 m/S 700 mmHg 74%
    22:00 +12°C° 0 mm 1 m/S 701 mmHg 76%
    23:00 +11°C° 0 mm 1 m/S 700 mmHg 77%

    Morgen, 26 Februar, Montag

    Zeit Temperatur Niederschläge Wind Luftdruck Luftfeuchtigkeit
    00:00 +11°C° 0 mm 1 m/S 700 mmHg 79%
    01:00 +10°C° 0 mm 1 m/S 700 mmHg 80%
    02:00 +10°C° 0 mm 1 m/S 700 mmHg 81%
    03:00 +10°C° 0 mm 1 m/S 699 mmHg 82%
    04:00 +9°C° 0 mm 1 m/S 699 mmHg 83%
    05:00 +10°C° 0 mm 1 m/S 699 mmHg 82%
    06:00 +10°C° 0 mm 1 m/S 700 mmHg 81%
    07:00 +10°C° 0 mm 1 m/S 700 mmHg 80%
    08:00 +13°C° 0 mm 1 m/S 700 mmHg 71%
    09:00 +16°C° 0 mm 1 m/S 701 mmHg 61%
    10:00 +19°C° 0 mm 1 m/S 701 mmHg 52%
    11:00 +20°C° 0 mm 1 m/S 700 mmHg 51%
    12:00 +20°C° 0 mm 2 m/S 700 mmHg 50%
    13:00 +21°C° 0 mm 2 m/S 699 mmHg 49%
    14:00 +20°C° 0 mm 2 m/S 698 mmHg 51%
    15:00 +20°C° 0 mm 2 m/S 697 mmHg 53%
    16:00 +20°C° 0 mm 2 m/S 697 mmHg 56%
    17:00 +19°C° 0 mm 2 m/S 697 mmHg 60%
    18:00 +18°C° 0 mm 2 m/S 697 mmHg 65%
    19:00 +17°C° 0 mm 2 m/S 697 mmHg 70%
    20:00 +17°C° 0 mm 2 m/S 697 mmHg 72%
    21:00 +16°C° 0 mm 1 m/S 697 mmHg 75%
    22:00 +16°C° 0 mm 1 m/S 697 mmHg 77%
    23:00 +16°C° 0,1 mm 1 m/S 697 mmHg 80%

    übermorgen, 27 Februar, Dienstag

    Zeit Temperatur Niederschläge Wind Luftdruck Luftfeuchtigkeit
    00:00 +16°C° 0,1 mm 1 m/S 696 mmHg 82%
    01:00 +16°C° 0,1 mm 1 m/S 696 mmHg 85%
    02:00 +15°C° 0 mm 1 m/S 696 mmHg 87%
    03:00 +15°C° 0 mm 1 m/S 695 mmHg 89%
    04:00 +15°C° 0 mm 1 m/S 695 mmHg 91%
    05:00 +15°C° 0,1 mm 2 m/S 695 mmHg 91%
    06:00 +16°C° 0,1 mm 2 m/S 695 mmHg 92%
    07:00 +16°C° 0,1 mm 2 m/S 695 mmHg 92%
    08:00 +16°C° 0,1 mm 3 m/S 695 mmHg 89%
    09:00 +17°C° 0,1 mm 4 m/S 696 mmHg 85%
    10:00 +18°C° 0,1 mm 4 m/S 696 mmHg 81%
    11:00 +19°C° 0 mm 5 m/S 695 mmHg 78%
    12:00 +19°C° 0 mm 5 m/S 694 mmHg 75%
    13:00 +20°C° 0 mm 5 m/S 694 mmHg 71%
    14:00 +20°C° 0,1 mm 5 m/S 693 mmHg 73%
    15:00 +19°C° 0,1 mm 4 m/S 693 mmHg 76%
    16:00 +19°C° 0,1 mm 3 m/S 692 mmHg 78%
    17:00 +18°C° 1 mm 3 m/S 693 mmHg 82%
    18:00 +18°C° 1 mm 2 m/S 693 mmHg 86%
    19:00 +18°C° 1 mm 1 m/S 693 mmHg 90%
    20:00 +18°C° 3 mm 1 m/S 694 mmHg 91%
    21:00 +18°C° 3 mm 1 m/S 694 mmHg 93%
    22:00 +18°C° 3 mm 1 m/S 695 mmHg 95%
    23:00 +16°C° 1,3 mm 1 m/S 695 mmHg 95%

    28 Februar, Mittwoch

    Zeit Temperatur Niederschläge Wind Luftdruck Luftfeuchtigkeit
    00:00 +16°C° 1,3 mm 1 m/S 695 mmHg 96%
    01:00 +16°C° 1,3 mm 1 m/S 695 mmHg 96%
    02:00 +16°C° 0,3 mm 1 m/S 695 mmHg 96%
    03:00 +16°C° 0,3 mm 1 m/S 695 mmHg 97%
    04:00 +16°C° 0,3 mm 1 m/S 694 mmHg 97%
    05:00 +16°C° 0,1 mm 1 m/S 695 mmHg 97%
    06:00 +16°C° 0,1 mm 1 m/S 695 mmHg 97%
    07:00 +16°C° 0,1 mm 1 m/S 696 mmHg 97%
    08:00 +18°C° 0,1 mm 1 m/S 696 mmHg 91%
    09:00 +20°C° 0,1 mm 1 m/S 697 mmHg 85%
    10:00 +21°C° 0,1 mm 1 m/S 697 mmHg 80%
    11:00 +21°C° 0,1 mm 1 m/S 697 mmHg 77%
    12:00 +21°C° 0,1 mm 2 m/S 696 mmHg 75%
    13:00 +21°C° 0,1 mm 2 m/S 696 mmHg 73%
    14:00 +23°C° 0,1 mm 2 m/S 695 mmHg 72%
    15:00 +23°C° 0,1 mm 2 m/S 695 mmHg 71%
    16:00 +23°C° 0,1 mm 2 m/S 695 mmHg 70%
    17:00 +21°C° 0 mm 2 m/S 695 mmHg 76%
    18:00 +20°C° 0 mm 2 m/S 695 mmHg 81%
    19:00 +19°C° 0 mm 1 m/S 695 mmHg 87%
    20:00 +19°C° 0 mm 1 m/S 695 mmHg 89%
    21:00 +18°C° 0 mm 1 m/S 695 mmHg 91%
    22:00 +18°C° 0 mm 1 m/S 695 mmHg 93%
    23:00 +18°C° 0 mm 1 m/S 694 mmHg 94%

    1 März, Donnerstag

    Zeit Temperatur Niederschläge Wind Luftdruck Luftfeuchtigkeit
    00:00 +18°C° 0 mm 1 m/S 694 mmHg 94%
    01:00 +18°C° 0 mm 1 m/S 693 mmHg 95%
    02:00 +17°C° 0,1 mm 2 m/S 693 mmHg 95%
    03:00 +17°C° 0,1 mm 2 m/S 692 mmHg 95%
    04:00 +17°C° 0,1 mm 2 m/S 692 mmHg 95%
    05:00 +17°C° 0,1 mm 2 m/S 692 mmHg 95%
    06:00 +17°C° 0,1 mm 2 m/S 692 mmHg 94%
    07:00 +17°C° 0,1 mm 2 m/S 692 mmHg 94%
    08:00 +18°C° 0,1 mm 3 m/S 693 mmHg 89%
    09:00 +19°C° 0,1 mm 4 m/S 693 mmHg 84%
    10:00 +20°C° 0,1 mm 5 m/S 693 mmHg 79%
    11:00 +21°C° 0,1 mm 5 m/S 692 mmHg 76%
    12:00 +21°C° 0,1 mm 5 m/S 692 mmHg 74%
    13:00 +22°C° 0,1 mm 5 m/S 691 mmHg 72%
    14:00 +21°C° 0,1 mm 4 m/S 691 mmHg 74%
    15:00 +21°C° 0,1 mm 4 m/S 690 mmHg 76%
    16:00 +21°C° 0,1 mm 3 m/S 690 mmHg 78%
    17:00 +20°C° 0,1 mm 3 m/S 690 mmHg 82%
    18:00 +19°C° 0,1 mm 3 m/S 690 mmHg 87%
    19:00 +18°C° 0,1 mm 2 m/S 690 mmHg 91%
    20:00 +18°C° 0 mm 2 m/S 690 mmHg 92%
    21:00 +18°C° 0 mm 2 m/S 691 mmHg 93%
    22:00 +18°C° 0 mm 2 m/S 691 mmHg 93%
    23:00 +18°C° 0 mm 3 m/S 691 mmHg 94%

    2 März, Freitag

    Zeit Temperatur Niederschläge Wind Luftdruck Luftfeuchtigkeit
    00:00 +18°C° 0 mm 3 m/S 690 mmHg 94%
    01:00 +18°C° 0 mm 3 m/S 690 mmHg 94%
    02:00 +18°C° 0 mm 2 m/S 690 mmHg 94%
    03:00 +18°C° 0 mm 2 m/S 690 mmHg 94%
    04:00 +18°C° 0 mm 2 m/S 690 mmHg 94%
    05:00 +18°C° 0,1 mm 2 m/S 691 mmHg 94%
    06:00 +18°C° 0,1 mm 2 m/S 691 mmHg 94%
    07:00 +19°C° 0,1 mm 1 m/S 692 mmHg 94%
    08:00 +19°C° 0,1 mm 2 m/S 692 mmHg 89%
    09:00 +20°C° 0,1 mm 2 m/S 692 mmHg 83%
    10:00 +21°C° 0,1 mm 3 m/S 692 mmHg 78%
    11:00 +22°C° 0,1 mm 3 m/S 692 mmHg 75%
    12:00 +23°C° 0,1 mm 4 m/S 691 mmHg 72%
    13:00 +23°C° 0,1 mm 4 m/S 691 mmHg 69%
    14:00 +23°C° 0,1 mm 4 m/S 690 mmHg 69%
    15:00 +23°C° 0,1 mm 4 m/S 690 mmHg 69%
    16:00 +23°C° 0,1 mm 4 m/S 690 mmHg 69%
    17:00 +22°C° 0,1 mm 3 m/S 690 mmHg 76%
    18:00 +21°C° 0,1 mm 2 m/S 690 mmHg 82%
    19:00 +21°C° 0,1 mm 1 m/S 691 mmHg 89%
    20:00 +20°C° 0 mm 1 m/S 691 mmHg 91%
    21:00 +20°C° 0 mm 1 m/S 691 mmHg 93%
    22:00 +19°C° 0 mm 1 m/S 691 mmHg 95%
    23:00 +19°C° 0,1 mm 1 m/S 691 mmHg 95%
    Mehr zeigen